Etusivu
METAR-TAF:

METAR-TAF

Lentoasemat :

Yellowstone Lake, Wyoming, Yhdysvallat

Leveyspiiri: 44-32-40N, Pituuspiiri: 110-25-16W, korkeus merenpinnasta: 2388 m

Tämänhetkinen sää

Tämä raportti tehtiin 16 minuuttia sitten, kello 13.56 UTC
tyyntä
Lämpötila -4°C
Kosteus 86%
Ilmanpaine 1017 hPa

METAR: KP60 301356Z AUTO 00000KT M04/M06 A3004 RMK AO1 SLP190 P0001 T10441056

Aika: 08:12 (14:12 UTC)


TAF: puuttuu

Säähavainnot ja -ennusteet yli 4000 lentoasemalta (METAR- ja TAF-raportit).

Käytössä olevat sääasemat on merkitty karttaan keltaisilla ja punaisilla pisteillä.

Aseta hiiri pisteen päälle nähdäksesi sääaseman nimen.

Klikkaa sitten nähdäksesi säähavainnot ja -ennusteet.

Kartan vaihtaminen: klikkaa mustalla rastilla varustettuja vihreitä pisteitä, niin voit zoomata sisään; viivalla varustettua vihreää pistettä, niin voit zoomata ulos tai vihreitä nuolia, niin pääset viereisille kartoille.


METAR-TAF: